Location: Newark
(34.0131°N, 4.3314°W)
Time: 20:41:27
(UTC+00:00)

Envisat - Visible Passes

Search period start: 19 October 2019 00:00
Search period end: 29 October 2019 00:00
Orbit: 764 x 766 km, 98.1° (Epoch: 19 October)

Date Brightness Start Highest point End Pass type
(mag) Time Alt. Az. Time Alt. Az. Time Alt. Az.
19 Oct 3.1 18:05:42 10° SSE 18:10:36 52° ENE 18:15:32 10° N visible
19 Oct 6.0 19:47:10 10° SW 19:49:52 14° W 19:52:34 10° WNW visible
20 Oct 4.7 19:08:16 10° SSW 19:12:51 34° W 19:17:28 10° NNW visible
21 Oct 3.1 18:30:58 10° SSE 18:36:02 84° WSW 18:41:09 10° NNW visible
22 Oct 3.4 17:54:41 10° SE 17:59:24 40° ENE 18:04:07 10° N visible
22 Oct 5.7 19:35:00 10° SW 19:38:31 19° W 19:42:03 10° NW visible
23 Oct 4.2 18:56:43 10° S 19:01:33 45° W 19:06:25 10° NNW visible
24 Oct 2.9 18:19:44 10° SSE 18:24:47 75° ENE 18:29:52 10° N visible
25 Oct 5.3 19:23:06 10° SSW 19:27:10 24° W 19:31:16 10° NW visible
26 Oct 6.3 05:57:43 10° ENE 06:00:28 15° E 06:03:12 10° SE visible
26 Oct 3.6 18:45:17 10° S 18:50:16 59° W 18:55:17 10° NNW visible
27 Oct 3.0 18:08:36 10° SSE 18:13:33 58° ENE 18:18:32 10° N visible
27 Oct 6.1 19:50:38 10° WSW 19:52:53 13° W 19:55:08 10° WNW visible
28 Oct 4.8 19:11:23 10° SSW 19:15:51 31° W 19:20:21 10° NW visible
